Time,TemperatureF,DewpointF,PressureIn,WindDirection,WindDirectionDegrees,WindSpeedMPH,WindSpeedGustMPH,Humidity,HourlyPrecipIn,Conditions,Clouds,dailyrainin,SoftwareType,DateUTC
2013-07-02 00:01:00,70.0,53.0,30.05,NE,49,1.0,1.0,55,0.00,,,0.00,,2013-07-02 05:01:00,
2013-07-02 00:11:00,69.0,53.0,30.05,NE,49,1.0,1.0,57,0.00,,,0.00,,2013-07-02 05:11:00,
2013-07-02 00:22:00,69.0,53.0,30.05,NE,49,1.0,1.0,57,0.00,,,0.00,,2013-07-02 05:22:00,
2013-07-02 00:32:00,69.0,53.0,30.05,NE,49,1.0,1.0,57,0.00,,,0.00,,2013-07-02 05:32:00,
2013-07-02 00:43:00,69.0,53.0,30.05,NE,49,1.0,1.0,57,0.00,,,0.00,,2013-07-02 05:43:00,
2013-07-02 00:53:00,69.0,53.0,30.05,NE,49,1.0,1.0,57,0.00,,,0.00,,2013-07-02 05:53:00,
2013-07-02 01:01:00,69.0,53.0,30.05,NE,49,1.0,1.0,57,0.00,,,0.00,,2013-07-02 06:01:00,
2013-07-02 01:12:00,68.0,53.0,30.05,NE,49,1.0,1.0,58,0.00,,,0.00,,2013-07-02 06:12:00,
2013-07-02 01:23:00,68.0,53.0,30.05,NE,49,1.0,1.0,58,0.00,,,0.00,,2013-07-02 06:23:00,
2013-07-02 01:34:00,68.0,53.0,30.05,NE,49,1.0,1.0,58,0.00,,,0.00,,2013-07-02 06:34:00,
2013-07-02 01:43:00,68.0,53.0,30.05,NE,49,1.0,3.0,58,0.00,,,0.00,,2013-07-02 06:43:00,
2013-07-02 01:53:00,68.0,53.0,30.05,NE,49,1.0,3.0,58,0.00,,,0.00,,2013-07-02 06:53:00,
2013-07-02 02:01:00,68.0,53.0,30.05,NE,49,1.0,3.0,58,0.00,,,0.00,,2013-07-02 07:01:00,
2013-07-02 02:12:00,67.0,53.0,30.05,NE,49,1.0,1.0,61,0.00,,,0.00,,2013-07-02 07:12:00,
2013-07-02 02:22:00,67.0,53.0,30.05,NE,49,1.0,1.0,61,0.00,,,0.00,,2013-07-02 07:22:00,
2013-07-02 02:34:00,67.0,53.0,30.05,NE,49,1.0,1.0,61,0.00,,,0.00,,2013-07-02 07:34:00,
2013-07-02 02:44:00,65.0,53.0,30.04,NE,49,1.0,1.0,65,0.00,,,0.00,,2013-07-02 07:44:00,
2013-07-02 02:53:00,65.0,53.0,30.04,NE,49,1.0,1.0,65,0.00,,,0.00,,2013-07-02 07:53:00,
2013-07-02 03:02:00,65.0,53.0,30.04,NE,49,1.0,1.0,65,0.00,,,0.00,,2013-07-02 08:02:00,
2013-07-02 03:12:00,65.0,54.0,30.04,NE,47,2.0,2.0,67,0.00,,,0.00,,2013-07-02 08:12:00,
2013-07-02 03:22:00,65.0,54.0,30.04,NE,47,2.0,2.0,67,0.00,,,0.00,,2013-07-02 08:22:00,
2013-07-02 03:33:00,65.0,54.0,30.04,NE,47,2.0,2.0,67,0.00,,,0.00,,2013-07-02 08:33:00,
2013-07-02 03:44:00,64.0,54.0,30.04,NNE,29,2.0,4.0,69,0.00,,,0.00,,2013-07-02 08:44:00,
2013-07-02 03:53:00,64.0,54.0,30.04,NNE,29,2.0,4.0,69,0.00,,,0.00,,2013-07-02 08:53:00,
2013-07-02 04:02:00,64.0,54.0,30.04,NNE,29,2.0,4.0,69,0.00,,,0.00,,2013-07-02 09:02:00,
2013-07-02 04:11:00,64.0,54.0,30.04,NNE,29,2.0,4.0,69,0.00,,,0.00,,2013-07-02 09:11:00,
2013-07-02 04:23:00,63.0,53.0,30.04,NNE,29,1.0,1.0,70,0.00,,,0.00,,2013-07-02 09:23:00,
2013-07-02 04:33:00,63.0,53.0,30.04,NNE,29,1.0,1.0,70,0.00,,,0.00,,2013-07-02 09:33:00,
2013-07-02 04:43:00,63.0,54.0,30.05,NNE,29,0.0,1.0,73,0.00,,,0.00,,2013-07-02 09:43:00,
2013-07-02 04:52:00,63.0,54.0,30.05,NNE,29,0.0,1.0,73,0.00,,,0.00,,2013-07-02 09:52:00,
2013-07-02 05:01:00,63.0,54.0,30.05,NNE,29,0.0,1.0,73,0.00,,,0.00,,2013-07-02 10:01:00,
2013-07-02 05:11:00,62.0,54.0,30.06,North,360,0.0,0.0,74,0.00,,,0.00,,2013-07-02 10:11:00,
2013-07-02 05:22:00,62.0,54.0,30.06,North,360,0.0,0.0,74,0.00,,,0.00,,2013-07-02 10:22:00,
2013-07-02 05:33:00,62.0,54.0,30.06,North,360,0.0,0.0,74,0.00,,,0.00,,2013-07-02 10:33:00,
2013-07-02 05:44:00,62.0,54.0,30.06,North,360,0.0,0.0,74,0.00,,,0.00,,2013-07-02 10:44:00,
2013-07-02 05:52:00,61.0,53.0,30.06,North,360,0.0,0.0,75,0.00,,,0.00,,2013-07-02 10:52:00,
2013-07-02 06:01:00,61.0,53.0,30.06,North,360,0.0,0.0,75,0.00,,,0.00,,2013-07-02 11:01:00,
2013-07-02 06:11:00,61.0,53.0,30.06,North,360,0.0,0.0,75,0.00,,,0.00,,2013-07-02 11:11:00,
2013-07-02 06:22:00,61.0,54.0,30.07,North,360,0.0,0.0,77,0.00,,,0.00,,2013-07-02 11:22:00,
2013-07-02 06:33:00,61.0,54.0,30.07,North,360,0.0,0.0,77,0.00,,,0.00,,2013-07-02 11:33:00,
2013-07-02 06:42:00,61.0,54.0,30.07,North,360,0.0,0.0,77,0.00,,,0.00,,2013-07-02 11:42:00,
2013-07-02 06:52:00,61.0,54.0,30.08,NNE,29,1.0,1.0,77,0.00,,,0.00,,2013-07-02 11:52:00,
2013-07-02 07:01:00,61.0,54.0,30.08,NNE,29,1.0,1.0,77,0.00,,,0.00,,2013-07-02 12:01:00,
2013-07-02 07:11:00,61.0,54.0,30.08,NNE,29,1.0,1.0,77,0.00,,,0.00,,2013-07-02 12:11:00,
2013-07-02 07:23:00,61.0,54.0,30.08,NNE,29,0.0,2.0,77,0.00,,,0.00,,2013-07-02 12:23:00,
2013-07-02 07:33:00,61.0,54.0,30.08,NNE,29,0.0,2.0,77,0.00,,,0.00,,2013-07-02 12:33:00,
2013-07-02 07:43:00,61.0,54.0,30.08,NNE,29,0.0,2.0,77,0.00,,,0.00,,2013-07-02 12:43:00,
2013-07-02 07:52:00,62.0,55.0,30.09,North,360,0.0,1.0,78,0.00,,,0.00,,2013-07-02 12:52:00,
2013-07-02 08:01:00,62.0,55.0,30.09,North,360,0.0,1.0,78,0.00,,,0.00,,2013-07-02 13:01:00,
2013-07-02 08:11:00,62.0,55.0,30.09,North,360,0.0,1.0,78,0.00,,,0.00,,2013-07-02 13:11:00,
2013-07-02 08:22:00,63.0,56.0,30.09,NNE,29,2.0,2.0,78,0.00,,,0.00,,2013-07-02 13:22:00,
2013-07-02 08:34:00,63.0,56.0,30.09,NNE,29,2.0,2.0,78,0.00,,,0.00,,2013-07-02 13:34:00,
2013-07-02 08:43:00,63.0,56.0,30.09,NNE,29,2.0,2.0,78,0.00,,,0.00,,2013-07-02 13:43:00,
2013-07-02 08:52:00,65.0,56.0,30.09,NNE,29,1.0,2.0,74,0.00,,,0.00,,2013-07-02 13:52:00,
2013-07-02 09:02:00,65.0,56.0,30.09,NNE,29,1.0,2.0,74,0.00,,,0.00,,2013-07-02 14:02:00,
2013-07-02 09:11:00,65.0,56.0,30.09,NNE,29,1.0,2.0,74,0.00,,,0.00,,2013-07-02 14:11:00,
2013-07-02 09:22:00,67.0,58.0,30.09,NNE,29,2.0,2.0,72,0.00,,,0.00,,2013-07-02 14:22:00,
2013-07-02 09:33:00,67.0,58.0,30.09,NNE,29,2.0,2.0,72,0.00,,,0.00,,2013-07-02 14:33:00,
2013-07-02 09:43:00,67.0,58.0,30.09,NNE,29,2.0,2.0,72,0.00,,,0.00,,2013-07-02 14:43:00,
2013-07-02 09:53:00,69.0,56.0,30.10,NNE,29,1.0,2.0,64,0.00,,,0.00,,2013-07-02 14:53:00,
2013-07-02 10:02:00,69.0,56.0,30.10,NNE,29,1.0,2.0,64,0.00,,,0.00,,2013-07-02 15:02:00,
2013-07-02 10:11:00,69.0,56.0,30.10,NNE,29,1.0,2.0,64,0.00,,,0.00,,2013-07-02 15:11:00,
2013-07-02 10:22:00,71.0,54.0,30.09,NNE,20,3.0,3.0,56,0.00,,,0.00,,2013-07-02 15:22:00,
2013-07-02 10:33:00,71.0,54.0,30.09,NNE,20,3.0,3.0,56,0.00,,,0.00,,2013-07-02 15:33:00,
2013-07-02 10:44:00,71.0,54.0,30.09,NNE,20,3.0,3.0,56,0.00,,,0.00,,2013-07-02 15:44:00,
2013-07-02 10:53:00,72.0,54.0,30.09,West,276,2.0,3.0,53,0.00,,,0.00,,2013-07-02 15:53:00,
2013-07-02 11:01:00,72.0,54.0,30.09,West,276,2.0,3.0,53,0.00,,,0.00,,2013-07-02 16:01:00,
2013-07-02 11:12:00,72.0,54.0,30.09,West,276,2.0,3.0,53,0.00,,,0.00,,2013-07-02 16:12:00,
2013-07-02 11:22:00,74.0,53.0,30.09,NE,34,1.0,4.0,48,0.00,,,0.00,,2013-07-02 16:22:00,
2013-07-02 11:33:00,74.0,53.0,30.09,NE,34,1.0,4.0,48,0.00,,,0.00,,2013-07-02 16:33:00,
2013-07-02 11:43:00,74.0,53.0,30.09,NE,34,1.0,4.0,48,0.00,,,0.00,,2013-07-02 16:43:00,
2013-07-02 11:52:00,75.0,53.0,30.09,North,358,7.0,7.0,47,0.00,,,0.00,,2013-07-02 16:52:00,
2013-07-02 12:02:00,75.0,53.0,30.09,North,358,7.0,7.0,47,0.00,,,0.00,,2013-07-02 17:02:00,
2013-07-02 12:12:00,75.0,53.0,30.09,North,358,7.0,7.0,47,0.00,,,0.00,,2013-07-02 17:12:00,
2013-07-02 12:33:00,76.0,53.0,30.09,NNE,28,2.0,4.0,45,0.00,,,0.00,,2013-07-02 17:33:00,
2013-07-02 12:43:00,76.0,53.0,30.09,NNE,28,2.0,4.0,45,0.00,,,0.00,,2013-07-02 17:43:00,
2013-07-02 12:53:00,77.0,55.0,30.09,North,1,2.0,2.0,47,0.00,,,0.00,,2013-07-02 17:53:00,
2013-07-02 13:02:00,77.0,55.0,30.09,North,1,2.0,2.0,47,0.00,,,0.00,,2013-07-02 18:02:00,
2013-07-02 13:12:00,77.0,55.0,30.09,North,1,2.0,2.0,47,0.00,,,0.00,,2013-07-02 18:12:00,
2013-07-02 13:23:00,77.0,52.0,30.08,North,352,2.0,3.0,42,0.00,,,0.00,,2013-07-02 18:23:00,
2013-07-02 13:34:00,77.0,52.0,30.08,North,352,2.0,3.0,42,0.00,,,0.00,,2013-07-02 18:34:00,
2013-07-02 13:43:00,77.0,52.0,30.08,North,352,2.0,3.0,42,0.00,,,0.00,,2013-07-02 18:43:00,
2013-07-02 13:53:00,77.0,51.0,30.08,North,359,2.0,5.0,41,0.00,,,0.00,,2013-07-02 18:53:00,
2013-07-02 14:01:00,77.0,51.0,30.08,North,359,2.0,5.0,41,0.00,,,0.00,,2013-07-02 19:01:00,
2013-07-02 14:12:00,77.0,51.0,30.08,North,359,2.0,5.0,41,0.00,,,0.00,,2013-07-02 19:12:00,
2013-07-02 14:22:00,78.0,54.0,30.07,North,1,2.0,4.0,43,0.00,,,0.00,,2013-07-02 19:22:00,
2013-07-02 14:34:00,78.0,54.0,30.07,North,1,2.0,4.0,43,0.00,,,0.00,,2013-07-02 19:34:00,
2013-07-02 14:43:00,78.0,54.0,30.07,North,1,2.0,4.0,43,0.00,,,0.00,,2013-07-02 19:43:00,
2013-07-02 15:02:00,78.0,56.0,30.06,NNW,348,3.0,3.0,46,0.00,,,0.00,,2013-07-02 20:02:00,
2013-07-02 15:22:00,79.0,52.0,30.06,North,358,2.0,4.0,39,0.00,,,0.00,,2013-07-02 20:22:00,
2013-07-02 15:33:00,79.0,52.0,30.06,North,358,2.0,4.0,39,0.00,,,0.00,,2013-07-02 20:33:00,
2013-07-02 15:43:00,79.0,52.0,30.06,North,358,2.0,4.0,39,0.00,,,0.00,,2013-07-02 20:43:00,
2013-07-02 15:52:00,79.0,53.0,30.05,NNW,347,2.0,3.0,41,0.00,,,0.00,,2013-07-02 20:52:00,
2013-07-02 16:02:00,79.0,53.0,30.05,NNW,347,2.0,3.0,41,0.00,,,0.00,,2013-07-02 21:02:00,
2013-07-02 16:11:00,79.0,53.0,30.05,NNW,347,2.0,3.0,41,0.00,,,0.00,,2013-07-02 21:11:00,
2013-07-02 16:22:00,79.0,50.0,30.04,NNW,346,3.0,6.0,37,0.00,,,0.00,,2013-07-02 21:22:00,
2013-07-02 16:30:00,79.0,51.0,30.04,North,350,4.0,4.0,38,0.00,,,0.00,,2013-07-02 21:30:00,
2013-07-02 16:33:00,79.0,50.0,30.04,NNW,346,3.0,6.0,37,0.00,,,0.00,,2013-07-02 21:33:00,
2013-07-02 16:44:00,79.0,50.0,30.04,NNW,346,3.0,6.0,37,0.00,,,0.00,,2013-07-02 21:44:00,
2013-07-02 16:52:00,79.0,51.0,30.04,North,350,4.0,4.0,38,0.00,,,0.00,,2013-07-02 21:52:00,
2013-07-02 17:01:00,79.0,51.0,30.04,North,350,4.0,4.0,38,0.00,,,0.00,,2013-07-02 22:01:00,
2013-07-02 17:11:00,79.0,51.0,30.04,North,350,4.0,4.0,38,0.00,,,0.00,,2013-07-02 22:11:00,
2013-07-02 17:22:00,79.0,51.0,30.04,North,350,4.0,4.0,38,0.00,,,0.00,,2013-07-02 22:22:00,
2013-07-02 17:53:00,78.0,54.0,30.03,North,353,3.0,3.0,43,0.00,,,0.00,,2013-07-02 22:53:00,
2013-07-02 18:12:00,78.0,54.0,30.03,North,353,3.0,3.0,43,0.00,,,0.00,,2013-07-02 23:12:00,
2013-07-02 18:22:00,78.0,54.0,30.02,North,349,2.0,3.0,44,0.00,,,0.00,,2013-07-02 23:22:00,
2013-07-02 18:33:00,78.0,54.0,30.02,North,349,2.0,3.0,44,0.00,,,0.00,,2013-07-02 23:33:00,
2013-07-02 18:44:00,78.0,54.0,30.02,North,349,2.0,3.0,44,0.00,,,0.00,,2013-07-02 23:44:00,
2013-07-02 18:52:00,78.0,54.0,30.02,NNW,348,2.0,2.0,43,0.00,,,0.00,,2013-07-02 23:52:00,
2013-07-02 19:01:00,78.0,54.0,30.02,NNW,348,2.0,2.0,43,0.00,,,0.00,,2013-07-03 00:01:00,
2013-07-02 19:11:00,78.0,54.0,30.02,NNW,348,2.0,2.0,43,0.00,,,0.00,,2013-07-03 00:11:00,
2013-07-02 19:22:00,78.0,54.0,30.02,North,350,1.0,2.0,43,0.00,,,0.00,,2013-07-03 00:22:00,
2013-07-02 19:33:00,78.0,54.0,30.02,North,350,1.0,2.0,43,0.00,,,0.00,,2013-07-03 00:33:00,
2013-07-02 19:44:00,78.0,54.0,30.02,North,350,1.0,2.0,43,0.00,,,0.00,,2013-07-03 00:44:00,
2013-07-02 19:52:00,77.0,53.0,30.02,North,360,0.0,0.0,43,0.00,,,0.00,,2013-07-03 00:52:00,
2013-07-02 20:01:00,77.0,53.0,30.02,North,360,0.0,0.0,43,0.00,,,0.00,,2013-07-03 01:01:00,
2013-07-02 20:11:00,77.0,53.0,30.02,North,360,0.0,0.0,43,0.00,,,0.00,,2013-07-03 01:11:00,
2013-07-02 20:22:00,76.0,55.0,30.02,North,352,4.0,4.0,48,0.00,,,0.00,,2013-07-03 01:22:00,
2013-07-02 20:33:00,76.0,55.0,30.02,North,352,4.0,4.0,48,0.00,,,0.00,,2013-07-03 01:33:00,
2013-07-02 20:43:00,76.0,55.0,30.02,North,352,4.0,4.0,48,0.00,,,0.00,,2013-07-03 01:43:00,
2013-07-02 20:59:00,76.0,55.0,30.02,North,352,4.0,4.0,48,0.00,,,0.00,,2013-07-03 01:59:00,
2013-07-02 21:04:00,73.0,56.0,30.02,North,8,1.0,2.0,55,0.00,,,0.00,,2013-07-03 02:04:00,
2013-07-02 21:14:00,73.0,56.0,30.02,North,8,1.0,2.0,55,0.00,,,0.00,,2013-07-03 02:14:00,
2013-07-02 21:27:00,73.0,56.0,30.02,North,8,1.0,2.0,55,0.00,,,0.00,,2013-07-03 02:27:00,
2013-07-02 21:39:00,73.0,56.0,30.02,North,8,1.0,2.0,55,0.00,,,0.00,,2013-07-03 02:39:00,
2013-07-02 21:44:00,73.0,56.0,30.02,North,8,1.0,2.0,55,0.00,,,0.00,,2013-07-03 02:44:00,
2013-07-02 21:59:00,70.0,57.0,30.03,North,360,0.0,1.0,64,0.00,,,0.00,,2013-07-03 02:59:00,
2013-07-02 22:13:00,70.0,57.0,30.03,North,360,0.0,1.0,64,0.00,,,0.00,,2013-07-03 03:13:00,
2013-07-02 22:25:00,69.0,58.0,30.04,NNE,12,0.0,1.0,69,0.00,,,0.00,,2013-07-03 03:25:00,
2013-07-02 22:35:00,69.0,58.0,30.04,NNE,12,0.0,1.0,69,0.00,,,0.00,,2013-07-03 03:35:00,
2013-07-02 22:49:00,69.0,58.0,30.04,NNE,12,0.0,1.0,69,0.00,,,0.00,,2013-07-03 03:49:00,
2013-07-02 22:58:00,69.0,57.0,30.04,ESE,121,1.0,1.0,66,0.00,,,0.00,,2013-07-03 03:58:00,
2013-07-02 23:01:00,69.0,57.0,30.04,ESE,121,1.0,1.0,66,0.00,,,0.00,,2013-07-03 04:01:00,
2013-07-02 23:11:00,69.0,57.0,30.04,ESE,121,1.0,1.0,66,0.00,,,0.00,,2013-07-03 04:11:00,
2013-07-02 23:22:00,69.0,56.0,30.04,ESE,123,1.0,2.0,64,0.00,,,0.00,,2013-07-03 04:22:00,
2013-07-02 23:33:00,69.0,56.0,30.04,ESE,123,1.0,2.0,64,0.00,,,0.00,,2013-07-03 04:33:00,
2013-07-02 23:43:00,69.0,56.0,30.04,ESE,123,1.0,2.0,64,0.00,,,0.00,,2013-07-03 04:43:00,
2013-07-02 23:52:00,68.0,56.0,30.04,North,360,0.0,0.0,65,0.00,,,0.00,,2013-07-03 04:52:00,